Weather History for Rochester, NH

Change the Weather History Date:

Friday, September 6, 2013

  Actual Average (KSFM) Record (KSFM)
Temperature  
Mean Temperature 54 °F -  
Max Temperature 69 °F 72 °F 87 °F (1998)
Min Temperature 41 °F 48 °F 32 °F (2000)
Degree Days  
Heating Degree Days 10    
Growing Degree Days 4 (Base 50)    
Moisture  
Dew Point 41 °F    
Average Humidity 62    
Maximum Humidity 89    
Minimum Humidity 35    
Precipitation  
Precipitation 0.00 in - - ()
Sea Level Pressure  
Sea Level Pressure 30.15 in    
Wind  
Wind Speed 4 mph (NW)    
Max Wind Speed 7 mph    
Max Gust Speed -    
Visibility 10 miles    
Events      
Averages and records for this station are not official NWS values.
T = Trace of Precipitation, MM = Missing Value Source: NWS Daily Summary

Daily Weather History Graph

Daily Weather History Graph

Search for Another Location

Airport:

Trip Planner

Search our weather history database for the weather conditions in past years. The results will help you decide how hot, cold, wet, or windy it might be!

Date:

Astronomy

Sep. 06, 2013 Rise Set
Actual Time 6:13 AM EDT 7:09 PM EDT
Civil Twilight 5:44 AM EDT 7:38 PM EDT
Nautical Twilight 5:09 AM EDT 8:13 PM EDT
Astronomical Twilight 4:33 AM EDT 8:49 PM EDT
Moon 7:26 AM EDT (9/6) 7:27 PM EDT (9/6)
Length of Visible Light 13h 54m
Length of Day
12h 56m
New Moon, 1% of the Moon is Illuminated
Sep 6
New Moon
Sep 12
First Quarter
Sep 19
Full
Sep 26
Last Quarter
Oct 4
New

Hourly Weather History & Observations

Time (EDT) Temp. Windchill Dew Point Humidity Pressure Visibility Wind Dir Wind Speed Gust Speed Precip Events Conditions
12:51 AM 50.0 °F - 37.9 °F 63% 30.15 in 10.0 mi WNW 3.5 mph - N/A   Clear
1:51 AM 46.0 °F 43.9 °F 39.0 °F 76% 30.16 in 10.0 mi NW 4.6 mph - N/A   Clear
2:51 AM 45.0 °F 42.6 °F 39.9 °F 82% 30.15 in 10.0 mi WNW 4.6 mph - N/A   Clear
3:51 AM 42.1 °F 38.4 °F 39.0 °F 89% 30.17 in 10.0 mi NW 5.8 mph - N/A   Clear
4:51 AM 41.0 °F 38.0 °F 37.9 °F 89% 30.19 in 10.0 mi NW 4.6 mph - N/A   Clear
5:51 AM 42.1 °F 39.2 °F 39.0 °F 89% 30.19 in 10.0 mi NW 4.6 mph - N/A   Clear
6:51 AM 42.1 °F 39.2 °F 39.0 °F 89% 30.21 in 10.0 mi NNW 4.6 mph - N/A   Clear
7:51 AM 48.9 °F - 41.0 °F 74% 30.22 in 10.0 mi NNW 4.6 mph - N/A   Clear
8:51 AM 55.0 °F - 42.1 °F 62% 30.22 in 10.0 mi NNW 6.9 mph - N/A   Clear
9:51 AM 61.0 °F - 44.1 °F 54% 30.22 in 10.0 mi NNW 5.8 mph - N/A   Clear
10:51 AM 62.1 °F - 39.0 °F 43% 30.22 in 10.0 mi Variable 3.5 mph - N/A   Clear
11:51 AM 63.0 °F - 37.9 °F 40% 30.21 in 10.0 mi West 5.8 mph - N/A   Clear
12:51 PM 64.0 °F - 37.0 °F 37% 30.19 in 10.0 mi Calm Calm - N/A   Clear
1:51 PM 66.0 °F - 39.0 °F 37% 30.17 in 10.0 mi Calm Calm - N/A   Clear
2:51 PM 68.0 °F - 39.0 °F 35% 30.14 in 10.0 mi Variable 3.5 mph - N/A   Clear
3:51 PM 68.0 °F - 39.0 °F 35% 30.12 in 10.0 mi Variable 5.8 mph - N/A   Clear
4:51 PM 68.0 °F - 41.0 °F 37% 30.11 in 10.0 mi Calm Calm - N/A   Clear
5:51 PM 66.0 °F - 39.9 °F 38% 30.10 in 10.0 mi West 4.6 mph - N/A   Clear
6:51 PM 63.0 °F - 43.0 °F 48% 30.10 in 10.0 mi Calm Calm - N/A   Clear
7:51 PM 57.0 °F - 46.0 °F 67% 30.09 in 10.0 mi Calm Calm - N/A   Clear
8:51 PM 57.0 °F - 45.0 °F 64% 30.09 in 10.0 mi Calm Calm - N/A   Clear
9:51 PM 54.0 °F - 46.0 °F 75% 30.07 in 10.0 mi Calm Calm - N/A   Clear
10:51 PM 52.0 °F - 46.0 °F 80% 30.07 in 10.0 mi Calm Calm - N/A   Clear
11:51 PM 52.0 °F - 45.0 °F 77% 30.06 in 10.0 mi Calm Calm - N/A   Clear